THOR ABLESTAR DEB, 244

Orbit data source: Space-Track

THOR ABLESTAR DEB, 244 is space debris in LEO originally from a launch on Thu, 29 Jun 1961 UTC launched from the Air Force Eastern Test Range (AFETR). Debris objects in space refer to the collection of defunct objects orbiting the Earth. Examples of debris include non-operational satellites, rocket bodies, and fragments generated from explosions, collisions, or faulty payload assembly.

Loading next visibility...
Identifier
244, 1961-015BZ
Orbit
LEO
Country
Flag of USUS
Related business
Manufacturer
Unknown
Mission
Spacecraft
Bus & Motor
Unknown
Mass
Unknown
Launch date (UTC)
1961-06-29 (65 years ago)
Launch vehicle
Unknown
Launch site
Air Force Eastern Test Range (AFETR)
Object type
Payload
Rocket body
Debris
Shape & HBR
Unknown shape, 0.2 m
Radar Cross Section
Medium (>0.1 m² and <1 m²)

Expand to show TLE details & history
Last TLE update: 1 day ago

TLE from 1 day ago
0 THOR ABLESTAR DEB
1   244U 61015BZ  26171.39027216  .00000029  00000-0  76590-4 0  9992
2   244  66.8397 221.5781 0062001  80.5896 280.2187 13.95743281299586
Epoch: 2026-06-20T09:21Z
TLE epoch observation values (Epoch: 2026-06-20T09:21:59.514Z)
Latitude
-0.00009°
Longitude
172.47451°
Altitude
902.913 km
Speed
7.405 km/s
True Right ascension
14h 46m 18s
True Declination
0° 00' 00"
Sunlit
Object was in full shadow at epoch
Visualization orbit readout
Latitude
Unknown
Longitude
Unknown
Altitude
Unknown
Speed
Unknown
Apparent Right ascension
Unknown
Apparent Declination
Unknown
Sunlit
N/A
Visualization observer readout
Local Sidereal Time
21:43:00
Azimuth
Unknown
Elevation
Unknown
Doppler factor
Unknown
Orbital elements
Apogee altitude
952.126 km
Perigee altitude
861.79 km
Semi-major axis
7,285.095 km
Eccentricity
0.0062
Inclination
66.8397°
RAAN
221.5781°
Arg. of periapsis
80.5896°
True anomaly
279.51855°
Mean anomaly
280.2187°
Eccentric anomaly
279.86872°
Mean motion
3.49052 °/min
Orbital period
103.14 mins
BSTAR
0.00007659
Loading maneuver chart data...
Computing Atmospheric mass density...

Documentation

Showing up to 5 results
|